Tracking 29059 objects as of 19-Jun-2024
HD Live streaming from Space Station
objects crossing your sky now

MUSAT1

Track MUSAT1 now!
10-day predictions


NORAD ID: 56967
Int'l Code: 2023-084AM
Perigee: 462.7 km
Apogee: 472.3 km
Inclination: 97.5 °
Period: 93.8 minutes
Semi major axis: 6838 km
RCS: Unknown
Launch date: June 12, 2023
Source: United States (US)
Launch site: AIR FORCE WESTERN TEST RANGE (AFWTR)
Your satellite tracking list
Your tracking list is empty




NASA's NSSDC Master Catalog

Two Line Element Set (TLE):
1 56967U 23084AM  24170.90186134  .00033124  00000-0  96845-3 0  9994
2 56967  97.5340 292.5946 0007045 343.3464  16.7547 15.35186938 56597
Source of the keplerian elements: AFSPC